Location: Bodest
(46.3000°N, 22.5667°E)
Time: 13:41:43
(UTC+00:00)

Cosmos 1844 Rocket - Pass Details

Date: 01 June 2022
Orbit: 826 x 843 km, 71.0° (Epoch: 28 June)

Event Time Altitude Azimuth Distance (km) Brightness Sun altitude
Rises 18:52:06 0° 338° (NNW) 3,382 7.1 -6.0°
Reaches altitude 10° 18:54:49 10° 348° (NNW) 2,443 6.0 -6.4°
Maximum altitude 18:59:49 33° 52° (NE) 1,375 3.8 -7.0°
Drops below altitude 10° 19:04:47 10° 115° (ESE) 2,426 4.5 -7.6°
Enters shadow 19:05:14 - 118° (ESE) 2,577 4.6 -7.7°
